Simultaneous Nadir Overpasses (SNOs) Predictions

Prediction of SNOs between GOES-15 and LANDSAT-8 Satellite Orbit:

Table of predicted SNOs for the next 14.0 days since TLE Epoch: 6/8/2024
Index Date Time (GOES-15) GOES-15 Lat,Lon LANDSAT-8 Lat,Lon Distance(km) Time Diff (sec)
1 06/08/2024 05:49:32 -0.17, 61.43 -0.90, 65.00 405.55 80
2 06/08/2024 18:13:36 0.14, 61.44 -0.22, 59.81 185.54 80
3 06/10/2024 17:58:45 0.16, 61.41 0.46, 62.76 153.68 80
4 06/11/2024 06:22:40 -0.13, 61.39 0.66, 57.61 428.67 80
5 06/12/2024 17:46:33 0.17, 61.39 1.10, 65.73 493.14 80
6 06/13/2024 06:10:28 -0.14, 61.36 0.01, 60.57 89.22 80
7 06/15/2024 05:55:35 -0.15, 61.34 -0.60, 63.54 250.26 80
8 06/15/2024 18:19:38 0.12, 61.36 -0.54, 58.37 341.16 80
9 06/17/2024 18:07:25 0.13, 61.34 0.11, 61.33 2.81 80
10 06/19/2024 17:52:32 0.14, 61.33 0.78, 64.29 336.90 80
11 06/20/2024 06:16:25 -0.11, 61.30 0.37, 59.15 245.23 80
